Preview of NWS' New Version of Forecast
This preview is not operational and should not be used for support decisions.

Regional Weather Roundup (RWR)

Issued by National Weather Service (NWS)

                            
000
ASUS46 KPQR 241910
RWROR 

OREGON REGIONAL WEATHER ROUNDUP
NATIONAL WEATHER SERVICE PORTLAND OR
1200 PM PDT MON JUN 24 2019

NOTE: "FAIR" INDICATES FEW OR NO CLOUDS BELOW 12,000 FEET WITH
NO SIGNIFICANT WEATHER AND/OR OBSTRUCTIONS TO VISIBILITY.

ORZ001>013-242000-
NORTHWEST OREGON

  
CITY           SKY/WX    TMP DP  RH WIND       PRES   REMARKS
ASTORIA        CLOUDY    60  47  61 N8        30.07F                  
TILLAMOOK      SUNNY     64  45  48 NW6       30.07F                  
PORTLAND       PTSUNNY   63  43  48 NW5       30.07F                  
VANCOUVER WA   CLOUDY    63  44  50 VRB7      30.07F                  
SCAPPOOSE      CLOUDY    61  47  59 CALM      30.06F                  
HILLSBORO      CLOUDY    61  44  53 N9        30.07F                  
AURORA         PTSUNNY   64  44  48 VRB5      30.07F                  
MCMINNVILLE    CLOUDY    64  45  49 N8        30.06F                  
SALEM          SUNNY     65  43  44 NE9       30.04F                  
CORVALLIS      SUNNY     66  46  48 E8        30.05F                  
EUGENE         MOSUNNY   68  48  48 VRB6      30.04F                  
$$

ORZ021-028-242000-
SOUTHWEST OREGON

  
CITY           SKY/WX    TMP DP  RH WIND       PRES   REMARKS
NORTH BEND     SUNNY     63  50  62 N16       30.06F                  
BROOKINGS      SUNNY     59  49  69 SW7       30.02S                  
ROSEBURG       SUNNY     68  51  54 VRB5      30.02F                  
SEXTON SUMMIT  SUNNY     62  46  55 VRB5      30.05F                  
GRANTS PASS    FAIR      73  45  35 VRB6      30.01F                  
MEDFORD        MOSUNNY   74  43  32 VRB5      29.97F                  
$$

ORZ014>016-041-242000-
COLUMBIA GORGE

  
CITY           SKY/WX    TMP DP  RH WIND       PRES   REMARKS
TROUTDALE      MOSUNNY   65  44  46 NW8       30.06F                  
HOOD RIVER     SUNNY     64  41  42 W15G23    29.99F                  
THE DALLES     SUNNY     71  43  36 W16G24    29.96F                  
$$

ORZ029>031-041-044-049-050-061>064-502-503-505>511-242000-
EASTERN OREGON

  
CITY           SKY/WX    TMP DP  RH WIND       PRES   REMARKS
MADRAS         SUNNY     68  36  30 CALM      30.01F                  
REDMOND        SUNNY     67  39  35 E5        29.99F                  
BEND           SUNNY     66  37  34 VRB6G14   29.98F                  
PRINEVILLE     SUNNY     66  34  30 NW8       29.99F                  
KLAMATH FALLS  SUNNY     69  37  30 W9        30.01F                  
LAKEVIEW       HAZE      70  41  35 SE9       30.02F VSB 1/2          
HERMISTON      SUNNY     70  39  32 W10G20    29.95F                  
PENDLETON      SUNNY     68  38  33 W14       29.96F                  
JOHN DAY       SUNNY     65  36  33 NW7       30.00F                  
MEACHAM        SUNNY     59  34  39 VRB3      30.01S                  
LA GRANDE      SUNNY     65  38  36 E12       29.98F                  
BAKER CITY     SUNNY     67  37  33 CALM      29.99F                  
BURNS          SUNNY     67  35  30 VRB6      30.02F                  
ROME             N/A     74  30  19 VRB6      29.97F                  
ONTARIO        SUNNY     73  36  25 S7        29.96F                  
$$